Fernandina Beach, FL

7:44 PM EST on December 05, 2019 (GMT -0500)
Fernandina Beach

Weather History for KFHB - October, 2019

Change the Weather History Date:

Sunday, October 13, 2019

  Actual Average (WUND) Record (WUND)
Temperature  
Mean Temperature 74 °F -  
Max Temperature 82 °F - - (-1)
Min Temperature 67 °F - - (-1)
Cooling Degree Days 10    
Growing Degree Days 24 (Base 50)    
Moisture  
Dew Point 67 °F    
Average Humidity 76    
Maximum Humidity 96    
Minimum Humidity 60    
Precipitation  
Precipitation 0.00 in - - ()
Sea Level Pressure  
Sea Level Pressure 30.05 in    
Wind  
Wind Speed 7 mph (South)    
Max Wind Speed 16 mph    
Max Gust Speed 18 mph    
Visibility 10 miles    
Events      
Averages and records for this station are not official NWS values.
T = Trace of Precipitation, MM = Missing Value Source: NWS Daily Summary

Daily Weather History Graph

Daily Weather History Graph

Search for Another Location

Airport or City:

Astronomy

Oct. 13, 2019 Rise Set
Actual Time 7:26 AM EDT 6:57 PM EDT
Civil Twilight 7:02 AM EDT 7:21 PM EDT
Nautical Twilight 6:34 AM EDT 7:49 PM EDT
Astronomical Twilight 6:06 AM EDT 8:17 PM EDT
Moon 7:15 PM EDT (10/13) 7:05 AM EDT (10/13)
Length of Visible Light 12h 18m
Length of Day
11h 30m
Full, 100% of the Moon is Illuminated
Oct 13
Full
Oct 13
Full
Oct 21
Last Quarter
Oct 27
New
Nov 4
First Quarter

Hourly Weather History & Observations

Time (EDT) Temp. Heat Index Dew Point Humidity Pressure Visibility Wind Dir Wind Speed Gust Speed Precip Events Conditions
12:15 AM 75.4 °F - 67.5 °F 76% 30.04 in 10.0 mi South 9.2 mph - N/A   Clear
12:55 AM 74.3 °F - 67.3 °F 79% 30.03 in 10.0 mi South 6.9 mph - N/A   Clear
1:15 AM 72.5 °F - 67.6 °F 85% 30.03 in 10.0 mi SSW 4.6 mph - N/A   Clear
1:35 AM 71.4 °F - 68.7 °F 91% 30.03 in 10.0 mi SSW 4.6 mph - N/A   Clear
1:55 AM 70.5 °F - 68.0 °F 92% 30.03 in 10.0 mi SSW 5.8 mph - N/A   Clear
2:15 AM 70.7 °F - 68.5 °F 93% 30.03 in 10.0 mi SSW 3.5 mph - N/A   Clear
2:35 AM 70.5 °F - 68.5 °F 93% 30.03 in 10.0 mi SSW 4.6 mph - N/A   Clear
2:55 AM 70.5 °F - 68.5 °F 93% 30.03 in 10.0 mi SW 4.6 mph - N/A   Clear
3:15 AM 69.8 °F - 67.8 °F 93% 30.02 in 10.0 mi SW 4.6 mph - N/A   Clear
3:35 AM 69.8 °F - 68.0 °F 94% 30.02 in 10.0 mi SSW 4.6 mph - N/A   Clear
3:55 AM 69.8 °F - 68.0 °F 94% 30.02 in 10.0 mi SSW 5.8 mph - N/A   Clear
4:35 AM 70.7 °F - 68.5 °F 93% 30.03 in 10.0 mi SW 4.6 mph - N/A   Clear
4:55 AM 69.6 °F - 67.8 °F 94% 30.02 in 10.0 mi SSW 5.8 mph - N/A   Clear
5:15 AM 69.8 °F - 67.8 °F 93% 30.03 in 10.0 mi SW 5.8 mph - N/A   Clear
5:35 AM 70.0 °F - 67.8 °F 93% 30.03 in 10.0 mi SW 4.6 mph - N/A   Clear
5:55 AM 69.6 °F - 67.6 °F 93% 30.04 in 10.0 mi SW 4.6 mph - N/A   Clear
6:15 AM 69.3 °F - 67.5 °F 94% 30.04 in 10.0 mi SSW 5.8 mph - N/A   Clear
6:35 AM 69.6 °F - 67.6 °F 93% 30.05 in 10.0 mi SW 4.6 mph - N/A   Clear
7:15 AM 68.9 °F - 67.5 °F 95% 30.06 in 10.0 mi WSW 3.5 mph - N/A   Clear
7:35 AM 69.6 °F - 67.8 °F 94% 30.06 in 10.0 mi WSW 3.5 mph - N/A   Clear
7:55 AM 67.8 °F - 66.6 °F 96% 30.06 in 10.0 mi WSW 3.5 mph - N/A   Clear
8:15 AM 70.9 °F - 68.9 °F 93% 30.07 in 10.0 mi WSW 3.5 mph - N/A   Clear
8:35 AM 72.5 °F - 69.6 °F 91% 30.07 in 10.0 mi Calm Calm - N/A   Clear
8:55 AM 73.8 °F - 69.6 °F 87% 30.07 in 10.0 mi SW 3.5 mph - N/A   Clear
9:35 AM 76.5 °F - 69.4 °F 79% 30.08 in 10.0 mi SW 8.1 mph - N/A   Clear
9:55 AM 77.5 °F - 69.8 °F 77% 30.08 in 10.0 mi SSW 8.1 mph - N/A   Clear
10:15 AM 78.1 °F - 69.3 °F 74% 30.08 in 10.0 mi SSW 6.9 mph - N/A   Clear
10:35 AM 79.0 °F - 68.7 °F 71% 30.08 in 10.0 mi SSW 6.9 mph - N/A   Clear
11:15 AM 80.8 °F 83.5 °F 68.2 °F 65% 30.08 in 10.0 mi SW 9.2 mph - N/A   Clear
11:35 AM 80.2 °F 82.8 °F 68.0 °F 66% 30.08 in 10.0 mi SSW 6.9 mph - N/A   Clear
11:55 AM 80.4 °F 83.0 °F 67.6 °F 65% 30.08 in 10.0 mi SSW 6.9 mph - N/A   Clear
12:15 PM 79.2 °F - 67.6 °F 68% 30.07 in 10.0 mi South 4.6 mph - N/A   Scattered Clouds
12:35 PM 80.2 °F 82.8 °F 68.0 °F 66% 30.06 in 10.0 mi South 9.2 mph - N/A   Mostly Cloudy
12:55 PM 82.0 °F 84.9 °F 67.8 °F 62% 30.07 in 10.0 mi SSE 12.7 mph - N/A   Overcast
1:15 PM 81.7 °F 84.5 °F 67.8 °F 63% 30.06 in 10.0 mi SE 11.5 mph - N/A   Scattered Clouds
1:35 PM 81.0 °F 83.6 °F 67.8 °F 64% 30.06 in 10.0 mi SSE 12.7 mph - N/A   Clear
1:55 PM 81.9 °F 84.8 °F 68.4 °F 63% 30.05 in 10.0 mi SSE 13.8 mph - N/A   Clear
2:15 PM 82.2 °F 85.3 °F 68.4 °F 63% 30.04 in 10.0 mi SSE 12.7 mph - N/A   Clear
2:35 PM 82.0 °F 85.3 °F 68.9 °F 64% 30.04 in 10.0 mi SE 11.5 mph - N/A   Clear
2:55 PM 82.2 °F 85.5 °F 68.7 °F 64% 30.03 in 10.0 mi SSE 12.7 mph - N/A   Clear
3:15 PM 82.2 °F 84.7 °F 67.3 °F 60% 30.03 in 10.0 mi SE 12.7 mph - N/A   Clear
3:55 PM 81.5 °F 83.9 °F 67.1 °F 61% 30.02 in 10.0 mi SE 16.1 mph - N/A   Clear
4:15 PM 82.0 °F 84.5 °F 66.7 °F 60% 30.02 in 10.0 mi SE 12.7 mph 18.4 mph N/A   Clear
4:35 PM 80.1 °F 82.1 °F 65.8 °F 62% 30.02 in 10.0 mi SSE 13.8 mph - N/A   Clear
4:55 PM 80.2 °F 82.5 °F 66.6 °F 63% 30.02 in 10.0 mi SSE 13.8 mph - N/A   Clear
5:15 PM 79.5 °F - 66.2 °F 64% 30.03 in 10.0 mi SSE 12.7 mph - N/A   Clear
5:35 PM 79.2 °F - 66.7 °F 66% 30.03 in 10.0 mi SSE 10.4 mph - N/A   Clear
5:55 PM 78.8 °F - 65.7 °F 64% 30.04 in 10.0 mi SSE 11.5 mph - N/A   Clear
6:35 PM 78.1 °F - 66.2 °F 67% 30.04 in 10.0 mi SSE 10.4 mph - N/A   Clear
6:55 PM 77.2 °F - 66.4 °F 69% 30.04 in 10.0 mi SSE 8.1 mph - N/A   Clear
7:15 PM 77.0 °F - 65.7 °F 68% 30.04 in 10.0 mi SSE 9.2 mph - N/A   Clear
7:55 PM 76.8 °F - 65.8 °F 69% 30.04 in 10.0 mi SSE 10.4 mph - N/A   Clear
8:15 PM 76.8 °F - 66.0 °F 69% 30.04 in 10.0 mi SSE 10.4 mph - N/A   Clear
8:35 PM 76.5 °F - 66.0 °F 70% 30.04 in 10.0 mi SSE 10.4 mph - N/A   Clear
8:55 PM 76.6 °F - 66.0 °F 70% 30.05 in 10.0 mi SSE 10.4 mph - N/A   Clear
9:15 PM 76.5 °F - 66.4 °F 71% 30.05 in 10.0 mi SSE 9.2 mph - N/A   Clear
9:35 PM 76.5 °F - 66.2 °F 70% 30.05 in 10.0 mi SSE 9.2 mph - N/A   Clear
9:55 PM 76.8 °F - 66.4 °F 70% 30.05 in 10.0 mi SSE 12.7 mph - N/A   Clear
10:15 PM 76.6 °F - 66.2 °F 70% 30.05 in 10.0 mi SSE 10.4 mph - N/A   Clear
10:35 PM 76.1 °F - 66.4 °F 72% 30.06 in 10.0 mi South 8.1 mph - N/A   Clear
10:55 PM 75.7 °F - 66.6 °F 73% 30.05 in 10.0 mi South 6.9 mph - N/A   Clear
11:15 PM 75.6 °F - 66.6 °F 74% 30.05 in 10.0 mi South 6.9 mph - N/A   Clear
11:35 PM 75.4 °F - 66.7 °F 74% 30.05 in 10.0 mi South 6.9 mph - N/A   Clear
11:55 PM 75.4 °F - 66.7 °F 74% 30.05 in 10.0 mi South 8.1 mph - N/A   Clear